Location: Apalco
(33.3585°N, 93.4602°W)
Time: 11:53:46
(UTC+00:00)

Nauka - Pass Details

Date: 04 October 2021
Orbit: 417 x 423 km, 51.6° (Epoch: 24 October)

Event Time Altitude Azimuth Distance (km) Brightness Sun altitude
Rises 00:31:20 0° 332° (NNW) 2,362 ? -8.4°
Reaches altitude 10° 00:34:44 10° 8° (N) 1,497 ? -9.1°
Maximum altitude 00:35:51 11° 28° (NNE) 1,421 ? -9.3°
Drops below altitude 10° 00:36:59 10° 48° (NE) 1,497 ? -9.6°
Enters shadow 00:37:26 - 55° (NE) 1,565 ? -9.7°
